TimeEST,TemperatureF,Dew PointF,Humidity,Sea Level PressureIn,VisibilityMPH,Wind Direction,Wind SpeedMPH,Gust SpeedMPH,PrecipitationIn,Events,Conditions,WindDirDegrees,DateUTC
12:15 AM,35.6,35.6,100,29.89,10.0,Calm,Calm,-,N/A,,Clear,0,2013-12-03 05:15:00
12:35 AM,35.6,35.6,100,29.89,10.0,Calm,Calm,-,N/A,,Mostly Cloudy,0,2013-12-03 05:35:00
12:55 AM,33.8,33.8,100,29.89,10.0,Calm,Calm,-,N/A,,Overcast,0,2013-12-03 05:55:00
1:15 AM,35.6,35.6,100,29.90,10.0,Calm,Calm,-,N/A,,Overcast,0,2013-12-03 06:15:00
1:35 AM,35.6,35.6,100,29.90,10.0,Calm,Calm,-,N/A,,Overcast,0,2013-12-03 06:35:00
1:55 AM,33.8,33.8,100,29.91,10.0,Calm,Calm,-,N/A,,Scattered Clouds,0,2013-12-03 06:55:00
2:15 AM,33.8,33.8,100,29.91,10.0,Calm,Calm,-,N/A,,Clear,0,2013-12-03 07:15:00
2:35 AM,33.8,33.8,100,29.91,10.0,Calm,Calm,-,N/A,,Clear,0,2013-12-03 07:35:00
2:55 AM,33.8,33.8,100,29.91,7.0,Calm,Calm,-,N/A,,Clear,0,2013-12-03 07:55:00
3:15 AM,32.0,32.0,100,29.90,10.0,Calm,Calm,-,N/A,,Clear,0,2013-12-03 08:15:00
3:35 AM,32.0,32.0,100,29.90,5.0,Calm,Calm,-,N/A,,Clear,0,2013-12-03 08:35:00
3:55 AM,32.0,32.0,100,29.89,4.0,Calm,Calm,-,N/A,,Clear,0,2013-12-03 08:55:00
4:15 AM,32.0,32.0,100,29.89,4.0,Calm,Calm,-,N/A,,Clear,0,2013-12-03 09:15:00
4:35 AM,32.0,32.0,100,29.90,7.0,Calm,Calm,-,N/A,,Clear,0,2013-12-03 09:35:00
4:55 AM,32.0,32.0,100,29.89,10.0,Calm,Calm,-,N/A,,Scattered Clouds,0,2013-12-03 09:55:00
5:15 AM,32.0,32.0,100,29.90,7.0,Calm,Calm,-,N/A,,Overcast,0,2013-12-03 10:15:00
5:35 AM,32.0,32.0,100,29.92,7.0,Calm,Calm,-,N/A,,Overcast,0,2013-12-03 10:35:00
5:55 AM,32.0,32.0,100,29.92,10.0,Calm,Calm,-,N/A,,Overcast,0,2013-12-03 10:55:00
6:15 AM,32.0,32.0,100,29.92,10.0,Calm,Calm,-,N/A,,Overcast,0,2013-12-03 11:15:00
6:35 AM,32.0,32.0,100,29.92,10.0,Calm,Calm,-,N/A,,Scattered Clouds,0,2013-12-03 11:35:00
6:55 AM,32.0,32.0,100,29.93,10.0,Calm,Calm,-,N/A,,Clear,0,2013-12-03 11:55:00
7:15 AM,32.0,32.0,100,29.94,10.0,Calm,Calm,-,N/A,,Clear,0,2013-12-03 12:15:00
7:35 AM,32.0,32.0,100,29.94,10.0,Calm,Calm,-,N/A,,Scattered Clouds,0,2013-12-03 12:35:00
7:55 AM,32.0,32.0,100,29.95,10.0,Calm,Calm,-,N/A,,Scattered Clouds,0,2013-12-03 12:55:00
8:15 AM,33.8,33.8,100,29.96,10.0,Calm,Calm,-,N/A,,Clear,0,2013-12-03 13:15:00
8:35 AM,35.6,35.6,100,29.97,10.0,Calm,Calm,-,N/A,,Clear,0,2013-12-03 13:35:00
8:55 AM,37.4,37.4,100,29.97,10.0,Calm,Calm,-,N/A,,Clear,0,2013-12-03 13:55:00
9:15 AM,42.8,41.0,93,29.97,10.0,Calm,Calm,-,N/A,,Clear,0,2013-12-03 14:15:00
9:35 AM,46.4,41.0,81,29.96,10.0,North,-9999.0,-,N/A,,Scattered Clouds,0,2013-12-03 14:35:00
9:55 AM,48.2,41.0,76,29.97,10.0,South,3.5,-,N/A,,Overcast,190,2013-12-03 14:55:00
10:15 AM,51.8,41.0,67,29.97,10.0,South,3.5,-,N/A,,Overcast,190,2013-12-03 15:15:00
10:35 AM,51.8,41.0,67,29.97,10.0,SSW,8.1,-,N/A,,Overcast,210,2013-12-03 15:35:00
10:55 AM,53.6,42.8,67,29.98,10.0,SSW,5.8,-,N/A,,Overcast,200,2013-12-03 15:55:00
11:15 AM,53.6,42.8,67,29.98,10.0,SSW,5.8,-,N/A,,Overcast,210,2013-12-03 16:15:00
11:35 AM,53.6,42.8,67,29.97,10.0,South,5.8,-,N/A,,Overcast,180,2013-12-03 16:35:00
11:55 AM,53.6,41.0,62,29.96,10.0,South,6.9,-,N/A,,Overcast,180,2013-12-03 16:55:00
12:15 PM,53.6,41.0,62,29.96,10.0,SSW,5.8,-,N/A,,Overcast,210,2013-12-03 17:15:00
12:35 PM,55.4,41.0,58,29.95,10.0,SSE,5.8,-,N/A,,Overcast,160,2013-12-03 17:35:00
12:55 PM,55.4,41.0,58,29.95,10.0,South,5.8,-,N/A,,Overcast,170,2013-12-03 17:55:00
1:15 PM,55.4,42.8,63,29.95,10.0,South,5.8,-,N/A,,Overcast,180,2013-12-03 18:15:00
1:35 PM,55.4,42.8,63,29.94,10.0,South,4.6,-,N/A,,Overcast,190,2013-12-03 18:35:00
1:55 PM,55.4,42.8,63,29.94,10.0,South,6.9,-,N/A,,Overcast,180,2013-12-03 18:55:00
2:15 PM,53.6,42.8,67,29.94,10.0,SSE,4.6,-,N/A,,Overcast,160,2013-12-03 19:15:00
2:35 PM,53.6,42.8,67,29.94,10.0,South,3.5,-,N/A,,Overcast,180,2013-12-03 19:35:00
2:55 PM,53.6,42.8,67,29.94,10.0,SSE,3.5,-,N/A,,Overcast,150,2013-12-03 19:55:00
3:15 PM,53.6,42.8,67,29.95,10.0,SSE,6.9,-,N/A,,Overcast,150,2013-12-03 20:15:00
3:35 PM,53.6,42.8,67,29.95,10.0,South,4.6,-,N/A,,Overcast,180,2013-12-03 20:35:00
3:55 PM,53.6,42.8,67,29.97,10.0,SSE,4.6,-,N/A,,Overcast,160,2013-12-03 20:55:00
4:15 PM,53.6,44.6,72,29.97,10.0,South,5.8,-,N/A,,Overcast,190,2013-12-03 21:15:00
4:35 PM,53.6,42.8,67,29.97,10.0,South,3.5,-,N/A,,Overcast,170,2013-12-03 21:35:00
4:55 PM,51.8,42.8,71,29.97,10.0,South,3.5,-,N/A,,Overcast,170,2013-12-03 21:55:00
5:15 PM,51.8,42.8,71,29.97,10.0,South,3.5,-,N/A,,Overcast,170,2013-12-03 22:15:00
5:35 PM,51.8,42.8,71,29.98,10.0,South,3.5,-,N/A,,Overcast,180,2013-12-03 22:35:00
5:55 PM,51.8,42.8,71,29.98,10.0,Calm,Calm,-,N/A,,Mostly Cloudy,0,2013-12-03 22:55:00
6:15 PM,50.0,42.8,76,29.99,10.0,Calm,Calm,-,N/A,,Overcast,0,2013-12-03 23:15:00
6:35 PM,50.0,42.8,76,29.99,10.0,Calm,Calm,-,N/A,,Overcast,0,2013-12-03 23:35:00
6:55 PM,50.0,44.6,82,29.99,10.0,Calm,Calm,-,N/A,,Overcast,0,2013-12-03 23:55:00
7:15 PM,50.0,44.6,82,29.99,10.0,Calm,Calm,-,N/A,,Mostly Cloudy,0,2013-12-04 00:15:00
7:35 PM,50.0,44.6,82,29.99,10.0,South,4.6,-,N/A,,Mostly Cloudy,170,2013-12-04 00:35:00
7:55 PM,50.0,44.6,82,29.99,10.0,South,3.5,-,N/A,,Mostly Cloudy,180,2013-12-04 00:55:00
8:15 PM,50.0,44.6,82,30.00,10.0,SSW,4.6,-,N/A,,Mostly Cloudy,200,2013-12-04 01:15:00
8:35 PM,50.0,44.6,82,29.99,10.0,Calm,Calm,-,N/A,,Mostly Cloudy,0,2013-12-04 01:35:00
8:55 PM,50.0,44.6,82,29.99,10.0,South,3.5,-,N/A,,Scattered Clouds,180,2013-12-04 01:55:00
9:15 PM,50.0,44.6,82,29.99,10.0,SSE,3.5,-,N/A,,Mostly Cloudy,160,2013-12-04 02:15:00
9:35 PM,50.0,44.6,82,30.00,10.0,Calm,Calm,-,N/A,,Overcast,0,2013-12-04 02:35:00
9:55 PM,50.0,44.6,82,30.00,10.0,Calm,Calm,-,N/A,,Overcast,0,2013-12-04 02:55:00
10:15 PM,50.0,44.6,82,30.00,10.0,Calm,Calm,-,N/A,,Overcast,0,2013-12-04 03:15:00
10:35 PM,50.0,44.6,82,30.01,10.0,Calm,Calm,-,N/A,,Overcast,0,2013-12-04 03:35:00
10:55 PM,50.0,44.6,82,30.02,10.0,SSW,3.5,-,N/A,,Overcast,200,2013-12-04 03:55:00
11:15 PM,50.0,44.6,82,30.02,7.0,Calm,Calm,-,N/A,Rain,Light Rain,0,2013-12-04 04:15:00
11:35 PM,50.0,46.4,87,30.02,10.0,Calm,Calm,-,N/A,,Overcast,0,2013-12-04 04:35:00
11:55 PM,50.0,46.4,87,30.02,10.0,Calm,Calm,-,N/A,,Overcast,0,2013-12-04 04:55:00